User: anonymous   Login
Location: Bettgenhausen
(50.6463°N, 7.5681°E)
Time: 10:07:34
(UTC+00:00)
Language:

STARLINK-1007 - Orbit

View from above orbital plane
View from above orbital plane
View from above satellite
View from above satellite

Ground track
Ground track

The orbit data is extracted from the following two-line orbital elements,

1 44713C 19074A   21210.16458693 -.00001339  00000-0 -89711-4 0  2102
2 44713  53.0536 188.7538 0000756  64.2155 237.0822 15.06399736    18
Epoch (UTC): 29 July 2021 03:57:00
Eccentricity: 0.0000756
inclination: 53.0536°
perigee height: 546 km
apogee height: 548 km
right ascension of ascending node: 188.7538°
argument of perigee: 64.2155°
revolutions per day: 15.06399736
mean anomaly at epoch: 237.0822°
orbit number at epoch: 1

The dashed part of the orbit path shows where the satellite is in the earth's shadow,  

DLR